User: anonymous   Login
Location: Melita
(38.4566°N, 122.6369°W)
Time: 12:25:40
(UTC+00:00)
Language:

USA 238 - Orbit

View from above orbital plane
View from above orbital plane
View from above satellite
View from above satellite

Ground track
Ground track

The orbit data is extracted from the following two-line orbital elements,

1 38758U 12048A   20096.10387524 0.00000000  00000-0  00000-0 0    06
2 38758  63.4283 218.1391 0119207 358.8862   1.1138 13.40802814    09
Epoch (UTC): 05 April 2020 02:29:34
Eccentricity: 0.0119207
inclination: 63.4283°
perigee height: 1017 km
apogee height: 1195 km
right ascension of ascending node: 218.1391°
argument of perigee: 358.8862°
revolutions per day: 13.40802814
mean anomaly at epoch: 1.1138°
orbit number at epoch: 0

The dashed part of the orbit path shows where the satellite is in the earth's shadow,  

DLR